Notices

What's New in latest Release from April 7th, 2021:

- Updated Glossary, including Speed of Maximum Gust, and Total Hourly Precipitation

- Updated national and regional climate services offices contacts and prices information

- Addition of station inventory lists for 1981-2010, 1971-2000, and 1961-1990 Normals.

If you haven't already, please take our survey and provide feedback about our website: https://eccc.sondage-survey.ca/f/LanguageSelection.aspx?s=442ca660-fcf1-47c0-95a9-59707d6fd709

Hourly Data Report for November 22, 2017

VICTORIA UNIVERSITY CS
BRITISH COLUMBIA

48°27'25.200" N
123°18'16.600" W
60.10 m
1018598
71783
WYJ

Download Data

Hourly Data (November 2017)
Hourly Data Report for November 22, 2017
TIME
LST
Temp Definition
°C
Dew Point Definition
°C
Rel Hum Definition
%
Precip. Amount Definition
mm

Wind Dir Definition
10's deg

Wind Spd Definition
km/h
Visibility Definition
km
Stn Press Definition
kPa
Hmdx Definition


Wind Chill Definition


Weather Definition


00:00 8.9 8.7 98 0.0 0 1   100.50     LegendNANA
01:00 9.5 9.2 98 0.2 1 2   100.48     LegendNANA
02:00 11.2 11.0 99 0.6 1 3   100.48     LegendNANA
03:00 12.5 12.3 99 0.0 3 4   100.45     LegendNANA
04:00 12.5 12.3 99 0.0 36 5   100.45     LegendNANA
05:00 11.6 11.3 98 0.0 3 5   100.49     LegendNANA
06:00 10.1 9.9 99 0.0 8 2   100.49     LegendNANA
07:00 9.8 9.6 99 0.0 9 3   100.48     LegendNANA
08:00 9.6 9.4 99 0.0 0 1   100.48     LegendNANA
09:00 10.9 10.7 99 0.0 11 1   100.46     LegendNANA
10:00 12.2 11.8 98 0.2 7 2   100.45     LegendNANA
11:00 13.9 12.7 93 0.0 36 3   100.43     LegendNANA
12:00 15.4 13.2 87 0.0 6 3   100.37     LegendNANA
13:00 15.2 13.0 87 0.0 5 3   100.27     LegendNANA
14:00 14.6 13.0 90 0.0 7 4   100.24     LegendNANA
15:00 13.4 12.3 93 0.0 14 3   100.21     LegendNANA
16:00 10.9 10.0 95 0.2 18 3   100.15     LegendNANA
17:00 11.3 10.9 97 0.0 16 2   100.11     LegendNANA
18:00 10.5 10.2 98 0.0 17 2   100.08     LegendNANA
19:00 11.4 11.2 98 2.5 25 2   100.10     LegendNANA
20:00 13.5 13.3 98 0.6 24 4   100.10     LegendNANA
21:00 14.1 13.1 94 0.6 24 11   100.11     LegendNANA
22:00 13.8 12.5 92 0.5 23 8   100.09     LegendNANA
23:00 14.4 11.7 84 0.0 24 11   100.10     LegendNANA

Notes on Data Quality.

Legend

  • E = Estimated
  • M = Missing
  • NA = Not Available*
  • [empty] = Indicates an unobserved value
Date modified: